Location: Four Corners
(38.2757°N, 122.4608°W)
Time: 22:49:30
(UTC+00:00)

N. Korean satellite - Visible Passes

Search period start: 26 February 2021 00:00
Search period end: 08 March 2021 00:00
Orbit: 451 x 503 km, 97.2° (Epoch: 26 February)

Date Brightness Start Highest point End Pass type
(mag) Time Alt. Az. Time Alt. Az. Time Alt. Az.
26 Feb 6.9 13:59:22 10° N 14:02:40 40° WNW 14:06:00 10° SW visible
27 Feb 6.6 13:32:29 10° NNE 13:36:00 82° ESE 13:39:33 10° S visible
28 Feb 8.4 13:06:02 10° NNE 13:09:14 33° E 13:12:29 10° SSE visible
01 Mar 9.7 12:40:15 10° ENE 12:42:23 15° E 12:44:31 10° SE visible
02 Mar 6.5 13:45:33 10° N 13:49:03 64° WNW 13:52:36 10° SSW visible
03 Mar 7.4 13:18:51 10° NNE 13:22:19 51° E 13:25:50 10° S visible
04 Mar 9.1 12:52:39 10° NE 12:55:30 22° E 12:58:22 10° SSE visible
05 Mar 10.2 12:28:09 10° E 12:28:34 10° E 12:29:00 10° E visible
05 Mar 7.0 13:58:40 10° N 14:02:02 41° WNW 14:05:26 10° SW visible
06 Mar 6.6 13:31:45 10° NNE 13:35:20 81° ESE 13:38:56 10° S visible
07 Mar 8.4 13:05:15 10° NNE 13:08:32 33° E 13:11:50 10° SSE visible
